| time (UTC) | temp F | wind direction | speed MPH | gust MPH | rain 1hr in | rain 24hr in | rain mn in | humidity % | barometer mb |
| 20260507134912 | 78 | 0 | 12.0 | 20.0 | 0.00 | 0.00 | 0.00 | 72 | 989.4 |
| 20260507133906 | 78 | 0 | 11.0 | 20.0 | 0.00 | 0.00 | 0.00 | 71 | 989.8 |
| 20260507133402 | 78 | 45 | 8.0 | 16.0 | 0.00 | 0.00 | 0.00 | 72 | 989.7 |
| 20260507132353 | 78 | 0 | 9.0 | 16.0 | 0.00 | 0.00 | 0.00 | 71 | 989.9 |
| 20260507131852 | 79 | 23 | 8.0 | 18.0 | 0.00 | 0.00 | 0.00 | 71 | 989.8 |
| 20260507130844 | 78 | 68 | 11.0 | 22.0 | 0.00 | 0.00 | 0.00 | 72 | 989.9 |
| 20260507130343 | 78 | 23 | 10.0 | 20.0 | 0.00 | 0.00 | 0.00 | 72 | 990.0 |
| 20260507125831 | 77 | 23 | 9.0 | 18.0 | 0.00 | 0.00 | 0.00 | 74 | 989.9 |
| 20260507125330 | 77 | 0 | 5.0 | 18.0 | 0.00 | 0.00 | 0.00 | 75 | 989.8 |
| 20260507124829 | 76 | 68 | 6.0 | 11.0 | 0.00 | 0.00 | 0.00 | 76 | 990.0 |
| 20260507124329 | 76 | 23 | 6.0 | 11.0 | 0.00 | 0.00 | 0.00 | 77 | 990.0 |
| 20260507123828 | 76 | 0 | 7.0 | 11.0 | 0.00 | 0.00 | 0.00 | 76 | 990.2 |
| 20260507123324 | 76 | 23 | 5.0 | 9.0 | 0.00 | 0.00 | 0.00 | 78 | 990.3 |
| 20260507122821 | 75 | 338 | 6.0 | 11.0 | 0.00 | 0.00 | 0.00 | 79 | 990.1 |
| 20260507122318 | 75 | 23 | 4.0 | 15.0 | 0.00 | 0.00 | 0.00 | 79 | 990.0 |
| 20260507121815 | 75 | 338 | 4.0 | 15.0 | 0.00 | 0.00 | 0.00 | 80 | 990.3 |
| 20260507120811 | 75 | 23 | 6.0 | 9.0 | 0.00 | 0.00 | 0.00 | 80 | 990.3 |
| 20260507120302 | 74 | 45 | 6.0 | 11.0 | 0.00 | 0.00 | 0.00 | 81 | 990.4 |
| 20260507115803 | 74 | 45 | 6.0 | 11.0 | 0.00 | 0.00 | 0.00 | 81 | 990.2 |
| 20260507115302 | 74 | 68 | 3.0 | 11.0 | 0.00 | 0.00 | 0.00 | 82 | 990.5 |
| 20260507114303 | 74 | 45 | 4.0 | 11.0 | 0.00 | 0.00 | 0.00 | 81 | 990.4 |
| 20260507113801 | 74 | 0 | 5.0 | 11.0 | 0.00 | 0.00 | 0.00 | 81 | 990.2 |
| 20260507112803 | 74 | 45 | 4.0 | 13.0 | 0.00 | 0.00 | 0.00 | 81 | 990.3 |
| 20260507112301 | 74 | 90 | 5.0 | 13.0 | 0.00 | 0.00 | 0.00 | 81 | 990.6 |
| 20260507111803 | 74 | 23 | 5.0 | 11.0 | 0.00 | 0.00 | 0.00 | 81 | 990.5 |
| 20260507111301 | 74 | 23 | 4.0 | 11.0 | 0.00 | 0.00 | 0.00 | 80 | 990.3 |
| 20260507110802 | 75 | 0 | 8.0 | 13.0 | 0.00 | 0.00 | 0.00 | 80 | 990.2 |
| 20260507110304 | 75 | 68 | 5.0 | 13.0 | 0.00 | 0.00 | 0.00 | 80 | 990.3 |
| 20260507105306 | 75 | 0 | 8.0 | 14.0 | 0.00 | 0.00 | 0.00 | 79 | 990.3 |
| 20260507104801 | 75 | 338 | 8.0 | 14.0 | 0.00 | 0.00 | 0.00 | 79 | 990.5 |
| 20260507104301 | 75 | 45 | 4.0 | 11.0 | 0.00 | 0.00 | 0.00 | 80 | 990.5 |
| 20260507103803 | 74 | 90 | 6.0 | 11.0 | 0.00 | 0.00 | 0.00 | 80 | 990.1 |
| 20260507102802 | 75 | 0 | 4.0 | 9.0 | 0.00 | 0.00 | 0.00 | 79 | 990.0 |
| 20260507101803 | 74 | 338 | 3.0 | 11.0 | 0.00 | 0.00 | 0.00 | 80 | 990.1 |
| 20260507100802 | 74 | 45 | 4.0 | 13.0 | 0.00 | 0.00 | 0.00 | 80 | 989.8 |
| 20260507095801 | 74 | 0 | 3.0 | 11.0 | 0.00 | 0.00 | 0.00 | 81 | 989.6 |
| 20260507095305 | 74 | 23 | 4.0 | 11.0 | 0.00 | 0.00 | 0.00 | 80 | 989.8 |
| 20260507094801 | 74 | 45 | 5.0 | 9.0 | 0.00 | 0.00 | 0.00 | 80 | 990.1 |
| 20260507094259 | 74 | 23 | 4.0 | 11.0 | 0.00 | 0.00 | 0.00 | 80 | 990.0 |
| 20260507093755 | 75 | 23 | 3.0 | 11.0 | 0.00 | 0.00 | 0.00 | 80 | 990.1 |
| 20260507093252 | 75 | 45 | 3.0 | 8.0 | 0.00 | 0.00 | 0.00 | 80 | 990.0 |
| 20260507092749 | 74 | 0 | 5.0 | 11.0 | 0.00 | 0.00 | 0.00 | 81 | 989.9 |
| 20260507092246 | 75 | 45 | 4.0 | 11.0 | 0.00 | 0.00 | 0.00 | 80 | 990.2 |
| 20260507091743 | 75 | 0 | 4.0 | 9.0 | 0.00 | 0.00 | 0.00 | 81 | 990.2 |
| 20260507091241 | 75 | 338 | 5.0 | 9.0 | 0.00 | 0.00 | 0.00 | 80 | 990.0 |
| 20260507090737 | 75 | 45 | 4.0 | 8.0 | 0.00 | 0.00 | 0.00 | 80 | 990.3 |
| 20260507090234 | 75 | 45 | 4.0 | 7.0 | 0.00 | 0.00 | 0.00 | 80 | 990.2 |
| 20260507085732 | 75 | 45 | 3.0 | 7.0 | 0.00 | 0.00 | 0.00 | 80 | 990.4 |
| 20260507084733 | 76 | 23 | 4.0 | 8.0 | 0.00 | 0.00 | 0.00 | 79 | 990.3 |
| 20260507084229 | 75 | 45 | 5.0 | 9.0 | 0.00 | 0.00 | 0.00 | 80 | 990.3 |
| 20260507083730 | 75 | 45 | 4.0 | 11.0 | 0.00 | 0.00 | 0.00 | 80 | 990.2 |
| 20260507082731 | 76 | 45 | 6.0 | 11.0 | 0.00 | 0.00 | 0.00 | 79 | 990.1 |
| 20260507082230 | 76 | 23 | 5.0 | 13.0 | 0.00 | 0.00 | 0.00 | 79 | 989.9 |
| 20260507081733 | 76 | 45 | 4.0 | 13.0 | 0.00 | 0.00 | 0.00 | 79 | 990.1 |
| 20260507081229 | 76 | 0 | 7.0 | 15.0 | 0.00 | 0.00 | 0.00 | 79 | 990.2 |
| 20260507080729 | 76 | 45 | 3.0 | 15.0 | 0.00 | 0.00 | 0.00 | 79 | 990.2 |
| 20260507080231 | 76 | 23 | 4.0 | 16.0 | 0.00 | 0.00 | 0.00 | 79 | 990.2 |
| 20260507075730 | 76 | 23 | 9.0 | 16.0 | 0.00 | 0.00 | 0.00 | 79 | 990.0 |
| 20260507074730 | 76 | 68 | 4.0 | 11.0 | 0.00 | 0.00 | 0.00 | 78 | 989.9 |
| 20260507073733 | 77 | 23 | 5.0 | 18.0 | 0.00 | 0.00 | 0.00 | 78 | 990.1 |
| 20260507072732 | 77 | 68 | 6.0 | 11.0 | 0.00 | 0.00 | 0.00 | 77 | 990.2 |
| 20260507071729 | 77 | 68 | 5.0 | 13.0 | 0.00 | 0.00 | 0.00 | 77 | 990.4 |
| 20260507071230 | 77 | 0 | 7.0 | 20.0 | 0.00 | 0.00 | 0.00 | 77 | 990.3 |
| 20260507070729 | 77 | 338 | 5.0 | 20.0 | 0.00 | 0.00 | 0.00 | 76 | 990.4 |
| 20260507070232 | 77 | 45 | 5.0 | 13.0 | 0.00 | 0.00 | 0.00 | 76 | 990.4 |
| 20260507065729 | 78 | 338 | 4.0 | 13.0 | 0.00 | 0.00 | 0.00 | 75 | 990.2 |
| 20260507065229 | 78 | 0 | 4.0 | 13.0 | 0.00 | 0.00 | 0.00 | 75 | 990.5 |
| 20260507064730 | 78 | 338 | 6.0 | 13.0 | 0.00 | 0.00 | 0.00 | 75 | 990.5 |
| 20260507064229 | 78 | 45 | 5.0 | 14.0 | 0.00 | 0.00 | 0.00 | 75 | 990.6 |
| 20260507063729 | 78 | 23 | 7.0 | 14.0 | 0.00 | 0.00 | 0.00 | 75 | 990.5 |
| 20260507063230 | 78 | 45 | 7.0 | 14.0 | 0.00 | 0.00 | 0.00 | 75 | 990.7 |
| 20260507062730 | 78 | 45 | 6.0 | 14.0 | 0.00 | 0.00 | 0.00 | 75 | 990.5 |
| 20260507062228 | 77 | 23 | 4.0 | 14.0 | 0.00 | 0.00 | 0.00 | 75 | 990.6 |
| 20260507061728 | 78 | 23 | 5.0 | 14.0 | 0.00 | 0.00 | 0.00 | 74 | 990.8 |
| 20260507061222 | 78 | 45 | 6.0 | 11.0 | 0.00 | 0.00 | 0.00 | 75 | 991.0 |
| 20260507060719 | 78 | 45 | 4.0 | 14.0 | 0.00 | 0.00 | 0.00 | 74 | 990.9 |
| 20260507060219 | 78 | 23 | 7.0 | 14.0 | 0.00 | 0.00 | 0.00 | 74 | 990.8 |
| 20260507055715 | 78 | 0 | 8.0 | 14.0 | 0.00 | 0.00 | 0.00 | 74 | 990.8 |
| 20260507055211 | 78 | 338 | 5.0 | 14.0 | 0.00 | 0.00 | 0.00 | 76 | 991.0 |
| 20260507054708 | 78 | 0 | 6.0 | 14.0 | 0.00 | 0.00 | 0.00 | 76 | 991.0 |
| 20260507054202 | 78 | 0 | 5.0 | 15.0 | 0.00 | 0.00 | 0.00 | 76 | 991.0 |
| 20260507053704 | 78 | 45 | 4.0 | 15.0 | 0.00 | 0.00 | 0.00 | 77 | 991.3 |
| 20260507053202 | 78 | 0 | 8.0 | 15.0 | 0.00 | 0.00 | 0.00 | 77 | 991.2 |
| 20260507052703 | 78 | 23 | 6.0 | 14.0 | 0.00 | 0.00 | 0.00 | 77 | 991.7 |
| 20260507052201 | 78 | 45 | 5.0 | 11.0 | 0.00 | 0.00 | 0.00 | 78 | 991.4 |
| 20260507051700 | 78 | 0 | 5.0 | 13.0 | 0.00 | 0.00 | 0.00 | 78 | 991.3 |
| 20260507051202 | 78 | 23 | 4.0 | 13.0 | 0.00 | 0.00 | 0.00 | 78 | 991.4 |
| 20260507050701 | 78 | 90 | 7.0 | 13.0 | 0.00 | 0.00 | 0.00 | 78 | 991.7 |
| 20260507050202 | 78 | 0 | 5.0 | 11.0 | 0.00 | 0.00 | 0.00 | 78 | 991.6 |
| 20260507045701 | 78 | 23 | 3.0 | 15.0 | 0.00 | 0.00 | 0.00 | 78 | 991.6 |
| 20260507045203 | 78 | 0 | 7.0 | 15.0 | 0.00 | 0.00 | 0.00 | 78 | 991.5 |
| 20260507043701 | 78 | 0 | 6.0 | 15.0 | 0.00 | 0.00 | 0.00 | 78 | 991.6 |
| 20260507043202 | 78 | 23 | 4.0 | 13.0 | 0.00 | 0.00 | 0.00 | 78 | 991.9 |
| 20260507042702 | 78 | 0 | 5.0 | 13.0 | 0.00 | 0.00 | 0.00 | 78 | 991.8 |
| 20260507042201 | 78 | 0 | 5.0 | 15.0 | 0.00 | 0.00 | 0.00 | 78 | 992.0 |
| 20260507041704 | 78 | 0 | 8.0 | 15.0 | 0.00 | 0.00 | 0.00 | 78 | 992.4 |
| 20260507041201 | 78 | 90 | 4.0 | 11.0 | 0.00 | 0.00 | 0.00 | 78 | 992.3 |
| 20260507035703 | 78 | 23 | 5.0 | 11.0 | 0.00 | 0.00 | 0.00 | 78 | 992.7 |
| 20260507035203 | 78 | 23 | 4.0 | 11.0 | 0.00 | 0.00 | 0.00 | 77 | 992.4 |
| 20260507034703 | 78 | 23 | 6.0 | 11.0 | 0.00 | 0.00 | 0.00 | 77 | 992.4 |
| 20260507034203 | 78 | 0 | 7.0 | 11.0 | 0.00 | 0.00 | 0.00 | 77 | 992.6 |
| 20260507033702 | 78 | 23 | 3.0 | 11.0 | 0.00 | 0.00 | 0.00 | 78 | 992.4 |
| 20260507033201 | 79 | 23 | 6.0 | 15.0 | 0.00 | 0.00 | 0.00 | 76 | 992.6 |
| 20260507032700 | 79 | 23 | 5.0 | 15.0 | 0.00 | 0.00 | 0.00 | 76 | 992.6 |
| 20260507032201 | 79 | 68 | 4.0 | 11.0 | 0.00 | 0.00 | 0.00 | 77 | 992.4 |
| 20260507031701 | 78 | 45 | 4.0 | 13.0 | 0.00 | 0.00 | 0.00 | 77 | 992.5 |
| 20260507031202 | 78 | 45 | 5.0 | 15.0 | 0.00 | 0.00 | 0.00 | 78 | 992.3 |
| 20260507030701 | 78 | 23 | 7.0 | 15.0 | 0.00 | 0.00 | 0.00 | 78 | 992.2 |
| 20260507030202 | 78 | 45 | 6.0 | 15.0 | 0.00 | 0.00 | 0.00 | 78 | 992.3 |
| 20260507025703 | 78 | 23 | 6.0 | 11.0 | 0.00 | 0.00 | 0.00 | 79 | 992.2 |
| 20260507025202 | 78 | 0 | 5.0 | 9.0 | 0.00 | 0.00 | 0.00 | 79 | 992.3 |
| 20260507024704 | 78 | 0 | 5.0 | 16.0 | 0.00 | 0.00 | 0.00 | 79 | 992.1 |
| 20260507024202 | 78 | 338 | 5.0 | 16.0 | 0.00 | 0.00 | 0.00 | 79 | 992.5 |
| 20260507023701 | 78 | 68 | 4.0 | 14.0 | 0.00 | 0.00 | 0.00 | 80 | 992.8 |
| 20260507023204 | 78 | 45 | 3.0 | 14.0 | 0.00 | 0.00 | 0.00 | 80 | 992.8 |
| 20260507022703 | 78 | 23 | 2.0 | 13.0 | 0.00 | 0.00 | 0.00 | 80 | 992.8 |
| 20260507022202 | 78 | 23 | 3.0 | 13.0 | 0.00 | 0.00 | 0.00 | 80 | 992.9 |
| 20260507021701 | 78 | 45 | 4.0 | 11.0 | 0.00 | 0.00 | 0.00 | 80 | 992.9 |
| 20260507021201 | 78 | 23 | 4.0 | 11.0 | 0.00 | 0.00 | 0.00 | 80 | 992.8 |
| 20260507020701 | 78 | 0 | 6.0 | 11.0 | 0.00 | 0.00 | 0.00 | 80 | 993.0 |
| 20260507020203 | 78 | 90 | 3.0 | 13.0 | 0.00 | 0.00 | 0.00 | 80 | 993.0 |
| 20260507015702 | 78 | 45 | 6.0 | 13.0 | 0.00 | 0.00 | 0.00 | 79 | 993.0 |
| 20260507015201 | 78 | 45 | 4.0 | 11.0 | 0.00 | 0.00 | 0.00 | 80 | 993.2 |
| 20260507014702 | 78 | 0 | 5.0 | 11.0 | 0.00 | 0.00 | 0.00 | 80 | 993.4 |
| 20260507014202 | 78 | 68 | 4.0 | 8.0 | 0.00 | 0.00 | 0.00 | 80 | 993.0 |
| 20260507013203 | 78 | 23 | 3.0 | 8.0 | 0.00 | 0.00 | 0.00 | 82 | 993.3 |
| 20260507012203 | 77 | 23 | 3.0 | 7.0 | 0.00 | 0.00 | 0.00 | 82 | 993.3 |
| 20260507011701 | 77 | 0 | 4.0 | 7.0 | 0.00 | 0.00 | 0.00 | 82 | 993.5 |
| 20260507010702 | 77 | 45 | 2.0 | 8.0 | 0.00 | 0.00 | 0.00 | 84 | 993.7 |
| 20260507010202 | 77 | 68 | 2.0 | 7.0 | 0.00 | 0.00 | 0.00 | 84 | 993.6 |
| 20260507005701 | 76 | 45 | 2.0 | 6.0 | 0.00 | 0.00 | 0.00 | 85 | 993.8 |
| 20260507005201 | 76 | 68 | 2.0 | 6.0 | 0.00 | 0.00 | 0.00 | 86 | 993.8 |
| 20260507004701 | 76 | 68 | 2.0 | 6.0 | 0.00 | 0.00 | 0.00 | 85 | 993.8 |
| 20260507004201 | 76 | 68 | 2.0 | 4.0 | 0.00 | 0.00 | 0.00 | 86 | 993.6 |
| 20260507003703 | 76 | 68 | 0.0 | 4.0 | 0.00 | 0.00 | 0.00 | 86 | 993.5 |
| 20260507003202 | 76 | 68 | 3.0 | 4.0 | 0.00 | 0.00 | 0.00 | 86 | 993.7 |
| 20260507002701 | 76 | 68 | 1.0 | 4.0 | 0.00 | 0.00 | 0.00 | 86 | 993.9 |
| 20260507001702 | 76 | 90 | 2.0 | 4.0 | 0.00 | 0.00 | 0.00 | 86 | 993.7 |
| 20260507001232 | 76 | 68 | 2.0 | 4.0 | 0.00 | 0.00 | 0.00 | 86 | 993.7 |
| 20260507000703 | 76 | 90 | 0.0 | 4.0 | 0.00 | 0.00 | 0.00 | 86 | 993.7 |
| 20260507000204 | 76 | 90 | 2.0 | 4.0 | 0.00 | 0.00 | 0.00 | 86 | 993.7 |
| 20260506235702 | 76 | 90 | 2.0 | 4.0 | 0.00 | 0.00 | 0.00 | 86 | 993.7 |
| 20260506235202 | 76 | 68 | 1.0 | 4.0 | 0.00 | 0.00 | 0.00 | 87 | 993.9 |
| 20260506234703 | 76 | 68 | 2.0 | 4.0 | 0.00 | 0.00 | 0.00 | 87 | 994.2 |
| 20260506234214 | 76 | 68 | 2.0 | 4.0 | 0.00 | 0.00 | 0.00 | 86 | 993.8 |
| 20260506233654 | 76 | 90 | 2.0 | 4.0 | 0.00 | 0.00 | 0.00 | 86 | 994.1 |
| 20260506232649 | 76 | 90 | 1.0 | 4.0 | 0.00 | 0.00 | 0.00 | 85 | 994.1 |
| 20260506232146 | 76 | 68 | 2.0 | 4.0 | 0.00 | 0.00 | 0.00 | 85 | 994.2 |
| 20260506231645 | 76 | 90 | 0.0 | 4.0 | 0.00 | 0.00 | 0.00 | 86 | 993.9 |
| 20260506231141 | 77 | 68 | 1.0 | 4.0 | 0.00 | 0.00 | 0.00 | 85 | 993.9 |
| 20260506230637 | 77 | 68 | 2.0 | 4.0 | 0.00 | 0.00 | 0.00 | 85 | 993.9 |
| 20260506230134 | 77 | 68 | 1.0 | 4.0 | 0.00 | 0.00 | 0.00 | 85 | 994.0 |
| 20260506225632 | 77 | 68 | 1.0 | 4.0 | 0.00 | 0.00 | 0.00 | 85 | 993.7 |
| 20260506225130 | 77 | 45 | 2.0 | 4.0 | 0.00 | 0.00 | 0.00 | 84 | 994.1 |
| 20260506224630 | 77 | 68 | 1.0 | 4.0 | 0.00 | 0.00 | 0.00 | 84 | 993.9 |
| 20260506224129 | 77 | 113 | 2.0 | 7.0 | 0.00 | 0.00 | 0.00 | 85 | 993.9 |
| 20260506223629 | 77 | 90 | 2.0 | 7.0 | 0.00 | 0.00 | 0.00 | 85 | 993.9 |
| 20260506223131 | 77 | 90 | 2.0 | 4.0 | 0.00 | 0.00 | 0.00 | 85 | 994.2 |
| 20260506222629 | 77 | 90 | 1.0 | 4.0 | 0.00 | 0.00 | 0.00 | 85 | 994.0 |
| 20260506222132 | 77 | 90 | 2.0 | 4.0 | 0.00 | 0.00 | 0.00 | 86 | 993.9 |
| 20260506221130 | 77 | 68 | 0.0 | 4.0 | 0.00 | 0.00 | 0.00 | 85 | 994.2 |
| 20260506220630 | 78 | 90 | 1.0 | 4.0 | 0.00 | 0.00 | 0.00 | 85 | 994.0 |
| 20260506220132 | 77 | 68 | 0.0 | 4.0 | 0.00 | 0.00 | 0.00 | 86 | 994.0 |
| 20260506215630 | 77 | 90 | 2.0 | 4.0 | 0.00 | 0.00 | 0.00 | 86 | 993.8 |
| 20260506215130 | 77 | 68 | 1.0 | 2.0 | 0.00 | 0.00 | 0.00 | 87 | 994.0 |
| 20260506213631 | 77 | 68 | 0.0 | 2.0 | 0.00 | 0.00 | 0.00 | 89 | 994.0 |
| 20260506213131 | 77 | 68 | 0.0 | 4.0 | 0.00 | 0.00 | 0.00 | 89 | 994.2 |
| 20260506212630 | 77 | 68 | 1.0 | 4.0 | 0.00 | 0.00 | 0.00 | 89 | 994.2 |
| 20260506212129 | 77 | 68 | 0.0 | 2.0 | 0.00 | 0.00 | 0.00 | 89 | 994.2 |
| 20260506211633 | 78 | 68 | 1.0 | 2.0 | 0.00 | 0.00 | 0.00 | 89 | 994.0 |
| 20260506211130 | 78 | 113 | 1.0 | 2.0 | 0.00 | 0.00 | 0.00 | 89 | 994.2 |
| 20260506210629 | 78 | 113 | 1.0 | 2.0 | 0.00 | 0.00 | 0.00 | 89 | 994.3 |
| 20260506210131 | 78 | 113 | 0.0 | 2.0 | 0.00 | 0.00 | 0.00 | 89 | 994.2 |
| 20260506205630 | 78 | 68 | 0.0 | 2.0 | 0.00 | 0.00 | 0.00 | 90 | 994.2 |
| 20260506205130 | 78 | 68 | 1.0 | 2.0 | 0.00 | 0.00 | 0.00 | 89 | 994.3 |
| 20260506204631 | 79 | 45 | 0.0 | 2.0 | 0.00 | 0.00 | 0.00 | 88 | 994.2 |
| 20260506204131 | 80 | 45 | 1.0 | 2.0 | 0.00 | 0.00 | 0.00 | 87 | 994.6 |
| 20260506203631 | 80 | 45 | 1.0 | 2.0 | 0.00 | 0.00 | 0.00 | 87 | 994.5 |
| 20260506203129 | 81 | 45 | 1.0 | 2.0 | 0.00 | 0.00 | 0.00 | 86 | 994.5 |
| 20260506202629 | 81 | 45 | 1.0 | 4.0 | 0.00 | 0.00 | 0.00 | 86 | 994.5 |
| 20260506202130 | 81 | 23 | 2.0 | 4.0 | 0.00 | 0.00 | 0.00 | 84 | 994.5 |
| 20260506200630 | 82 | 68 | 1.0 | 2.0 | 0.00 | 0.00 | 0.00 | 82 | 994.3 |
| 20260506200130 | 82 | 68 | 0.0 | 2.0 | 0.00 | 0.00 | 0.00 | 82 | 994.4 |
| 20260506195129 | 82 | 68 | 0.0 | 2.0 | 0.00 | 0.00 | 0.00 | 80 | 994.6 |
| 20260506194631 | 83 | 68 | 0.0 | 2.0 | 0.00 | 0.00 | 0.00 | 80 | 994.7 |
| 20260506194129 | 83 | 68 | 2.0 | 2.0 | 0.00 | 0.00 | 0.00 | 78 | 994.4 |
| 20260506193629 | 83 | 23 | 1.0 | 2.0 | 0.00 | 0.00 | 0.00 | 79 | 994.5 |
| 20260506193131 | 83 | 90 | 1.0 | 2.0 | 0.00 | 0.00 | 0.00 | 78 | 994.6 |
| 20260506192630 | 84 | 68 | 1.0 | 2.0 | 0.00 | 0.00 | 0.00 | 75 | 994.5 |
| 20260506192132 | 84 | 68 | 1.0 | 4.0 | 0.00 | 0.00 | 0.00 | 75 | 994.8 |
| 20260506191130 | 85 | 68 | 2.0 | 6.0 | 0.00 | 0.00 | 0.00 | 73 | 994.8 |
| 20260506190130 | 85 | 45 | 2.0 | 6.0 | 0.00 | 0.00 | 0.00 | 72 | 994.9 |
| 20260506185630 | 85 | 68 | 4.0 | 13.0 | 0.00 | 0.00 | 0.00 | 73 | 994.9 |
| 20260506184629 | 87 | 338 | 3.0 | 8.0 | 0.00 | 0.00 | 0.00 | 71 | 994.9 |
| 20260506184132 | 87 | 23 | 4.0 | 7.0 | 0.00 | 0.00 | 0.00 | 72 | 995.0 |
| 20260506181630 | 86 | 23 | 8.0 | 18.0 | 0.00 | 0.00 | 0.00 | 69 | 994.8 |
| 20260506181125 | 87 | 23 | 4.0 | 15.0 | 0.00 | 0.00 | 0.00 | 69 | 995.2 |
| 20260506180622 | 88 | 68 | 6.0 | 11.0 | 0.00 | 0.00 | 0.00 | 71 | 995.4 |
| 20260506180121 | 88 | 0 | 5.0 | 11.0 | 0.00 | 0.00 | 0.00 | 70 | 995.3 |
| 20260506175616 | 88 | 23 | 7.0 | 11.0 | 0.00 | 0.00 | 0.00 | 69 | 995.4 |
| 20260506174602 | 88 | 45 | 4.0 | 15.0 | 0.00 | 0.00 | 0.00 | 66 | 995.6 |
| 20260506174103 | 88 | 45 | 9.0 | 15.0 | 0.00 | 0.00 | 0.00 | 65 | 995.6 |
| 20260506172603 | 88 | 0 | 4.0 | 13.0 | 0.00 | 0.00 | 0.00 | 67 | 995.9 |
| 20260506172101 | 87 | 0 | 7.0 | 13.0 | 0.00 | 0.00 | 0.00 | 66 | 996.2 |
| 20260506171604 | 88 | 68 | 6.0 | 11.0 | 0.00 | 0.00 | 0.00 | 68 | 996.1 |
| 20260506171104 | 88 | 45 | 8.0 | 14.0 | 0.00 | 0.00 | 0.00 | 68 | 996.2 |
| 20260506165103 | 87 | 338 | 6.0 | 17.0 | 0.00 | 0.00 | 0.00 | 68 | 996.6 |
| 20260506164602 | 88 | 68 | 7.0 | 11.0 | 0.00 | 0.00 | 0.00 | 69 | 996.6 |
| 20260506164102 | 88 | 0 | 3.0 | 7.0 | 0.00 | 0.00 | 0.00 | 68 | 996.6 |
| 20260506163603 | 87 | 23 | 4.0 | 11.0 | 0.00 | 0.00 | 0.00 | 69 | 996.9 |
| 20260506163102 | 88 | 0 | 4.0 | 11.0 | 0.00 | 0.00 | 0.00 | 66 | 997.0 |
| 20260506162602 | 89 | 0 | 2.0 | 9.0 | 0.00 | 0.00 | 0.00 | 66 | 996.8 |
| 20260506162101 | 88 | 68 | 4.0 | 9.0 | 0.00 | 0.00 | 0.00 | 66 | 997.0 |
| 20260506161603 | 87 | 45 | 4.0 | 7.0 | 0.00 | 0.00 | 0.00 | 68 | 997.4 |
| 20260506161101 | 87 | 45 | 3.0 | 8.0 | 0.00 | 0.00 | 0.00 | 68 | 997.1 |
| 20260506160603 | 87 | 45 | 3.0 | 9.0 | 0.00 | 0.00 | 0.00 | 68 | 997.4 |
| 20260506155603 | 87 | 338 | 5.0 | 9.0 | 0.00 | 0.00 | 0.00 | 68 | 997.5 |
| 20260506154603 | 86 | 45 | 4.0 | 7.0 | 0.00 | 0.00 | 0.00 | 71 | 997.4 |
| 20260506154101 | 86 | 45 | 3.0 | 7.0 | 0.00 | 0.00 | 0.00 | 70 | 997.7 |
| 20260506153601 | 86 | 90 | 2.0 | 8.0 | 0.00 | 0.00 | 0.00 | 72 | 998.0 |
| 20260506153103 | 86 | 338 | 4.0 | 8.0 | 0.00 | 0.00 | 0.00 | 72 | 997.9 |
| 20260506152601 | 86 | 45 | 3.0 | 6.0 | 0.00 | 0.00 | 0.00 | 69 | 997.9 |
| 20260506152102 | 86 | 338 | 4.0 | 6.0 | 0.00 | 0.00 | 0.00 | 71 | 998.0 |
| 20260506151601 | 85 | 68 | 3.0 | 7.0 | 0.00 | 0.00 | 0.00 | 72 | 998.1 |
| 20260506151100 | 85 | 0 | 3.0 | 7.0 | 0.00 | 0.00 | 0.00 | 72 | 998.2 |
| 20260506150606 | 84 | 23 | 3.0 | 7.0 | 0.00 | 0.00 | 0.00 | 75 | 998.2 |
| 20260506145103 | 84 | 68 | 4.0 | 9.0 | 0.00 | 0.00 | 0.00 | 75 | 998.7 |
| 20260506144101 | 83 | 23 | 4.0 | 9.0 | 0.00 | 0.00 | 0.00 | 76 | 998.7 |
| 20260506143603 | 83 | 0 | 4.0 | 11.0 | 0.00 | 0.00 | 0.00 | 78 | 998.7 |
| 20260506142603 | 82 | 68 | 5.0 | 11.0 | 0.00 | 0.00 | 0.00 | 79 | 998.9 |
| 20260506142101 | 81 | 68 | 2.0 | 11.0 | 0.00 | 0.00 | 0.00 | 81 | 998.8 |
| 20260506141602 | 81 | 68 | 4.0 | 11.0 | 0.00 | 0.00 | 0.00 | 81 | 998.6 |
| 20260506141101 | 81 | 68 | 4.0 | 8.0 | 0.00 | 0.00 | 0.00 | 80 | 998.9 |
| 20260506140602 | 81 | 23 | 2.0 | 8.0 | 0.00 | 0.00 | 0.00 | 80 | 999.0 |
| 20260506140101 | 81 | 23 | 3.0 | 6.0 | 0.00 | 0.00 | 0.00 | 81 | 998.9 |
| 20260506135604 | 81 | 23 | 3.0 | 6.0 | 0.00 | 0.00 | 0.00 | 81 | 998.9 |